Temp
10 10 10 10 10 10 9 10 10 9 9 9 9 9 10 10 10 11 11 11 12 11
9 9 10 10 10 11 10 10 10 10 10 9 10 10 11 11 11 11 11 11 11 11
9 9 9 9 9 10 10 10 10 10 10 10 10 11 11 11 11 10 10 10 10 10
9 9 9 8 9 10 10 10 10 10 10 10 10 11 11 10 10 10 10 10 10 11
10 9 8 9 8 9 9 10 10 10 10 10 10 10 10 10 10 10 10 10 10 10
12 11 9 9 8 8 9 9 9 10 9 10 10 10 10 10 10 10 10 10 10 10
13 14 13 11 9 8 8 8 8 8 9 9 9 9 9 10 10 10 10 10 10 10
12 12 12 11 11 11 10 8 8 8 8 8 8 8 8 8 9 9 9 9 9 9
9 10 10 11 12 12 11 10 10 8 8 8 8 9 8 8 9 8 8 8 9 9
10 10 9 9 10 10 11 11 11 10 10 9 9 9 9 9 9 8 8 8 8 8
10 9 9 9 9 9 10 10 11 11 11 10 11 11 10 9 9 9 9 9 9 9
9 9 10 10 10 10 9 9 10 10 10 10 10 10 10 10 10 10 10 9 9 9
6 5 6 8 8 9 10 9 10 10 9 10 10 10 10 10 10 10 10 9 9 9
5 4 4 4 5 6 8 8 9 10 9 8 9 9 9 10 10 10 8 9 8 7
Height
1444 1446 1449 1453 1456 1459 1463 1469 1476 1481 1486 1489 1495 1500 1505 1507 1511 1515 1518 1521 1523 1525
1440 1443 1445 1450 1454 1458 1463 1467 1471 1476 1482 1487 1492 1496 1499 1502 1505 1509 1512 1515 1517 1520
1437 1441 1445 1448 1451 1456 1461 1465 1468 1473 1477 1481 1486 1489 1492 1495 1498 1502 1504 1507 1510 1511
1432 1437 1442 1445 1449 1453 1458 1462 1465 1468 1471 1474 1477 1481 1484 1487 1491 1493 1496 1499 1501 1502
1428 1433 1436 1440 1445 1449 1452 1456 1458 1462 1465 1468 1471 1474 1476 1479 1482 1484 1486 1489 1492 1492
1426 1428 1430 1434 1439 1442 1446 1449 1452 1455 1456 1459 1462 1466 1468 1471 1474 1475 1477 1480 1481 1481
1424 1424 1426 1429 1431 1435 1438 1442 1443 1446 1449 1451 1454 1456 1458 1461 1463 1465 1466 1469 1469 1470
1426 1426 1428 1430 1430 1430 1430 1432 1436 1438 1440 1442 1443 1444 1447 1450 1452 1453 1454 1456 1457 1457
1420 1421 1423 1424 1425 1425 1426 1426 1426 1427 1429 1431 1431 1432 1436 1441 1442 1443 1444 1443 1444 1445
1415 1414 1415 1416 1417 1418 1419 1421 1420 1420 1420 1419 1420 1422 1427 1429 1431 1431 1431 1431 1433 1434
1411 1410 1410 1409 1409 1409 1411 1411 1412 1412 1412 1414 1412 1413 1415 1418 1422 1422 1421 1421 1421 1421
1407 1406 1405 1403 1402 1402 1402 1401 1400 1404 1406 1406 1408 1406 1406 1408 1409 1409 1409 1410 1409 1409
1403 1402 1400 1398 1397 1395 1393 1393 1394 1393 1394 1394 1395 1393 1395 1396 1397 1396 1396 1394 1393 1394
1401 1397 1396 1395 1393 1391 1388 1386 1384 1384 1383 1383 1383 1382 1381 1383 1385 1386 1386 1383 1382 1381
Wind_Speed
27 26 24 26 30 36 44 46 48 42 39 36 35 32 36 35 34 39 39 38 39 37
31 30 28 30 33 37 42 48 52 49 48 45 43 41 36 36 37 38 37 40 38 39
33 32 30 32 38 39 40 45 49 50 48 51 46 44 44 42 39 42 40 41 43 42
31 36 34 33 37 39 40 42 44 45 45 47 50 49 49 48 47 46 46 46 47 46
25 33 38 39 36 37 38 38 40 44 49 50 51 51 51 52 52 53 51 50 51 53
23 24 33 37 37 37 37 38 39 40 46 52 52 52 55 55 55 54 55 56 58 59
24 24 25 26 32 40 41 40 42 43 44 46 49 55 57 59 60 60 61 62 64 63
29 29 29 30 30 30 33 40 42 44 45 47 47 51 51 55 60 61 61 60 61 62
24 30 34 34 32 33 35 36 37 41 46 49 52 51 50 51 50 53 55 57 58 58
18 18 25 30 35 40 41 39 40 40 40 44 49 49 46 45 48 50 52 53 52 53
6 12 16 22 28 35 38 43 45 45 43 43 42 42 42 42 44 46 48 51 52 53
14 11 13 13 19 27 33 38 44 46 48 46 43 46 45 45 44 46 48 48 52 56
18 17 16 16 17 19 24 33 35 34 42 44 45 49 50 50 48 50 51 56 57 57
17 16 16 14 16 18 18 18 29 34 34 33 34 40 46 47 48 49 44 44 45 45
Wind_Direction
214 221 217 210 210 206 203 203 203 204 207 204 203 205 213 218 218 224 223 223 227 230
215 219 219 214 210 210 210 209 209 212 213 212 215 218 219 222 225 227 232 230 231 236
217 220 221 220 218 218 219 219 218 220 226 224 224 225 229 229 232 233 232 234 235 240
216 220 221 225 225 225 227 227 228 231 228 228 226 229 232 237 237 234 235 237 241 243
222 220 224 227 230 229 231 235 237 237 234 232 233 234 233 234 237 238 237 241 245 248
238 233 228 230 231 233 233 236 238 239 239 238 239 238 239 240 240 241 243 246 250 253
251 253 249 245 239 235 237 238 240 241 242 245 246 245 246 246 246 250 254 255 257 259
261 263 262 258 256 253 248 243 241 242 244 245 246 247 248 248 250 253 255 257 257 258
265 268 264 262 262 262 259 256 253 250 246 246 247 248 248 251 252 254 257 258 258 258
252 267 256 264 265 260 259 261 259 256 254 254 255 257 256 255 252 254 256 257 257 259
295 267 266 255 254 261 267 265 262 262 262 260 265 266 269 266 259 259 262 263 264 265
353 324 289 282 272 264 256 256 264 266 263 262 266 262 262 262 262 262 262 262 261 260
357 353 345 326 300 292 275 258 249 241 240 242 244 250 254 257 255 254 254 249 248 252
360 358 355 349 341 322 303 268 244 238 235 236 237 243 245 248 251 251 253 244 246 248